FW8225 Weather Reports


time (UTC)temp
F
wind
direction
speed
knots
gust
knots
rain 1hr
in
rain 24hr
in
rain mn
in
humidity
%
barometer
mb
20260507164130 62 305 19.1 23.5 0.00 0.00 0.00 33 1011.5
20260507163627 63 315 24.3 26.1 0.00 0.00 0.00 32 1011.4
20260507163125 62 303 20.0 27.8 0.00 0.00 0.00 32 1011.3
20260507162620 62 313 19.1 30.4 0.00 0.00 0.00 32 1011.2
20260507162117 63 317 26.1 27.8 0.00 0.00 0.00 31 1011.1
20260507161613 62 310 19.1 25.2 0.00 0.00 0.00 33 1011.3
20260507161110 62 298 21.7 25.2 0.00 0.00 0.00 33 1011.4
20260507160606 62 297 24.3 29.5 0.00 0.00 0.00 33 1011.5
20260507155557 61 299 19.1 23.5 0.00 0.00 0.00 34 1011.6
20260507155055 61 275 20.0 23.5 0.00 0.00 0.00 35 1011.8
20260507154552 61 289 16.5 23.5 0.00 0.00 0.00 34 1011.8
20260507154049 62 300 14.8 23.5 0.00 0.00 0.00 34 1011.6
20260507153546 61 303 23.5 26.9 0.00 0.00 0.00 33 1011.8
20260507153042 61 287 23.5 27.8 0.00 0.00 0.00 32 1011.5
20260507152538 61 295 20.0 26.1 0.00 0.00 0.00 33 1011.8
20260507152034 61 302 15.6 26.1 0.00 0.00 0.00 33 1011.8
20260507151530 61 286 20.9 28.7 0.00 0.00 0.00 33 1011.5
20260507151028 60 308 23.5 28.7 0.00 0.00 0.00 33 1011.6
20260507150525 59 290 26.1 29.5 0.00 0.00 0.00 35 1011.6
20260507150021 58 301 22.6 26.1 0.00 0.00 0.00 36 1011.8
20260507145516 58 284 23.5 27.8 0.00 0.00 0.00 36 1011.5
20260507145015 58 295 19.1 26.1 0.00 0.00 0.00 37 1011.8
20260507144511 57 297 19.1 23.5 0.00 0.00 0.00 38 1012.0
20260507144008 56 285 13.9 21.7 0.00 0.00 0.00 39 1011.9
20260507143505 55 289 16.5 21.7 0.00 0.00 0.00 40 1012.0
20260507143002 55 288 14.8 20.9 0.00 0.00 0.00 42 1012.0
20260507142458 54 283 13.9 18.2 0.00 0.00 0.00 41 1011.9
20260507141955 54 280 17.4 20.9 0.00 0.00 0.00 41 1011.8
20260507141451 54 290 17.4 20.0 0.00 0.00 0.00 42 1011.9
20260507140948 53 296 16.5 20.9 0.00 0.00 0.00 42 1011.9
20260507140444 53 287 13.9 19.1 0.00 0.00 0.00 44 1011.9
20260507135942 52 285 13.9 20.0 0.00 0.00 0.00 45 1012.0
20260507135438 52 278 16.5 21.7 0.00 0.00 0.00 44 1012.0
20260507134936 51 288 19.1 20.9 0.00 0.00 0.00 45 1012.2
20260507134432 51 278 19.1 20.0 0.00 0.00 0.00 46 1011.9
20260507133929 51 271 17.4 20.9 0.00 0.00 0.00 46 1011.8
20260507133425 50 290 20.9 21.7 0.00 0.00 0.00 46 1011.9
20260507132924 50 287 18.2 20.0 0.00 0.00 0.00 47 1012.1
20260507132419 49 279 13.0 18.2 0.00 0.00 0.00 48 1012.0
20260507131916 49 289 10.4 18.2 0.00 0.00 0.00 47 1011.8
20260507131413 49 296 14.8 18.2 0.00 0.00 0.00 48 1012.0
20260507130910 49 287 13.0 23.5 0.00 0.00 0.00 47 1011.8
20260507130407 49 286 18.2 23.5 0.00 0.00 0.00 47 1011.8
20260507125906 49 291 19.1 20.0 0.00 0.00 0.00 48 1011.6
20260507125403 48 287 18.2 20.0 0.00 0.00 0.00 48 1011.4
20260507124900 49 288 16.5 21.7 0.00 0.00 0.00 47 1011.5
20260507124356 48 279 20.9 23.5 0.00 0.00 0.00 47 1011.4
20260507123855 48 271 20.9 23.5 0.00 0.00 0.00 47 1011.5
20260507123351 48 280 15.6 21.7 0.00 0.00 0.00 47 1011.3
20260507122848 47 277 14.8 23.5 0.00 0.00 0.00 49 1011.4
20260507122343 47 277 14.8 23.5 0.00 0.00 0.00 49 1011.4
20260507121839 47 275 13.9 18.2 0.00 0.00 0.00 50
20260507094901 43 238 12.2 18.2 0.00 0.00 0.00 52 1012.0
20260507094357 43 238 12.2 18.2 0.00 0.00 0.00 52 1012.0
20260507093854 43 244 16.5 17.4 0.00 0.00 0.00 52 1011.9
20260507093352 42 243 11.3 17.4 0.00 0.00 0.00 56 1011.9
20260507092850 38 224 10.4 13.0 0.00 0.00 0.00 65 1011.9
20260507092346 37 217 6.1 11.3 0.00 0.00 0.00 68 1012.1
20260507091843 37 219 7.0 11.3 0.00 0.00 0.00 69 1011.9
20260507091339 37 203 7.0 9.6 0.00 0.00 0.00 69 1012.0
20260507090835 37 205 6.1 9.6 0.00 0.00 0.00 68 1012.0
20260507090331 38 197 6.1 10.4 0.00 0.00 0.00 67 1012.1
20260507085828 38 213 5.2 11.3 0.00 0.00 0.00 67 1012.1
20260507085325 37 229 6.1 11.3 0.00 0.00 0.00 69 1012.4
20260507084823 37 220 7.8 11.3 0.00 0.00 0.00 71 1012.3
20260507084319 37 216 9.6 14.8 0.00 0.00 0.00 71 1012.3
20260507083816 36 214 5.2 13.9 0.00 0.00 0.00 72 1012.4
20260507083313 36 219 9.6 13.0 0.00 0.00 0.00 74 1012.4
20260507082809 35 209 9.6 11.3 0.00 0.00 0.00 75 1012.3
20260507082306 35 207 5.2 8.7 0.00 0.00 0.00 75 1012.3
20260507081802 36 207 5.2 8.7 0.00 0.00 0.00 74 1012.4
20260507081258 36 200 6.1 8.7 0.00 0.00 0.00 73 1012.7
20260507080754 37 197 5.2 8.7 0.00 0.00 0.00 72 1012.8
20260507080251 37 228 7.8 9.6 0.00 0.00 0.00 72 1013.0
20260507075746 37 210 6.1 8.7 0.00 0.00 0.00 70 1012.8
20260507075242 39 226 5.2 9.6 0.00 0.00 0.00 65 1013.0
20260507074739 40 237 12.2 13.9 0.00 0.00 0.00 63 1012.8
20260507074237 40 236 10.4 14.8 0.00 0.00 0.00 63 1012.9
20260507073733 40 235 11.3 15.6 0.00 0.00 0.00 63 1013.1
20260507073230 40 236 11.3 17.4 0.00 0.00 0.00 64 1013.2
20260507072728 39 242 9.6 17.4 0.00 0.00 0.00 66 1013.3
20260507072225 39 242 15.6 17.4 0.00 0.00 0.00 66 1013.5
20260507071723 39 238 17.4 19.1 0.00 0.00 0.00 67 1013.5
20260507071219 38 228 12.2 18.2 0.00 0.00 0.00 70 1013.6
20260507070716 38 228 10.4 16.5 0.00 0.00 0.00 71 1013.3
20260507070213 38 231 12.2 19.1 0.00 0.00 0.00 72 1013.6
20260507065709 38 231 12.2 18.2 0.00 0.00 0.00 72 1013.8
20260507065206 38 239 13.9 17.4 0.00 0.00 0.00 71 1013.7
20260507064704 38 237 19.1 20.0 0.00 0.00 0.00 71 1013.7
20260507064203 38 229 15.6 20.0 0.00 0.00 0.00 71 1013.9
20260507063659 38 219 16.5 22.6 0.00 0.00 0.00 70 1013.8
20260507063156 38 230 18.2 20.9 0.00 0.00 0.00 71 1014.3
20260507062653 38 240 14.8 20.0 0.00 0.00 0.00 71 1013.9
20260507062150 38 242 16.5 18.2 0.00 0.00 0.00 71 1013.9
20260507061648 38 231 13.0 17.4 0.00 0.00 0.00 71 1014.0
20260507061146 38 238 15.6 19.1 0.00 0.00 0.00 71 1013.9
20260507060644 38 232 10.4 17.4 0.00 0.00 0.00 71 1014.0
20260507060140 38 226 7.8 19.1 0.00 0.00 0.00 71 1014.1
20260507055635 38 226 13.0 19.1 0.00 0.01 0.01 71 1014.1
20260507055132 38 237 16.5 20.9 0.00 0.01 0.01 71 1014.3
20260507054628 38 236 13.0 20.9 0.00 0.01 0.01 71 1014.1
20260507054125 38 232 16.5 20.9 0.00 0.01 0.01 71 1014.0
20260507053623 39 228 18.2 22.6 0.00 0.01 0.01 71 1014.0
20260507053121 39 226 17.4 22.6 0.00 0.01 0.01 70 1014.1
20260507052619 39 232 13.9 21.7 0.00 0.01 0.01 70 1014.1
20260507052115 39 233 17.4 22.6 0.00 0.01 0.01 70 1014.1
20260507051613 39 238 14.8 20.9 0.00 0.01 0.01 71 1014.1
20260507051109 39 230 16.5 23.5 0.00 0.01 0.01 70 1014.3
20260507050606 39 232 19.1 20.9 0.00 0.01 0.01 71 1014.1
20260507045559 39 228 8.7 19.1 0.00 0.01 0.01 71 1014.5
20260507045056 39 223 10.4 17.4 0.00 0.01 0.01 72 1014.4
20260507044553 39 208 11.3 18.2 0.00 0.01 0.01 72 1014.5
20260507044050 39 232 13.9 19.1 0.00 0.01 0.01 72 1014.4
20260507043545 39 231 12.2 16.5 0.00 0.01 0.01 72 1014.7
20260507043043 39 231 11.3 15.6 0.00 0.01 0.01 73 1014.7
20260507042539 39 226 9.6 15.6 0.00 0.01 0.01 71 1014.6
20260507042035 40 211 8.7 13.9 0.00 0.01 0.01 70 1014.7
20260507041532 40 222 11.3 13.0 0.00 0.01 0.01 69 1014.7
20260507041029 40 231 6.1 14.8 0.00 0.01 0.01 68 1014.7
20260507040525 40 217 7.0 13.9 0.00 0.01 0.01 67 1014.7
20260507040021 40 218 8.7 12.2 0.00 0.01 0.01 68 1014.8
20260507035517 40 218 7.0 10.4 0.00 0.01 0.01 68 1014.8
20260507035014 40 211 7.8 9.6 0.00 0.01 0.01 68 1015.2
20260507034511 40 222 7.8 11.3 0.00 0.01 0.01 67 1015.2
20260507034009 40 220 7.8 11.3 0.00 0.01 0.01 67 1015.4
20260507033507 40 204 5.2 9.6 0.00 0.01 0.01 67 1015.3
20260507033004 40 219 7.0 10.4 0.00 0.01 0.01 67 1015.3
20260507032501 39 201 6.1 9.6 0.00 0.01 0.01 68 1015.3
20260507031956 39 208 6.1 7.0 0.00 0.01 0.01 67 1015.2
20260507031453 39 199 6.1 8.7 0.00 0.01 0.01 67 1015.5
20260507030950 39 200 5.2 7.8 0.00 0.01 0.01 67 1015.4
20260507030447 39 191 3.5 6.1 0.00 0.01 0.01 66 1015.3
20260507025944 38 216 6.1 7.8 0.00 0.01 0.01 67 1015.6
20260507025441 38 187 4.3 7.0 0.00 0.01 0.01 66 1015.4
20260507024939 39 185 3.5 5.2 0.00 0.01 0.01 63 1015.4
20260507024436 40 203 4.3 7.0 0.00 0.01 0.01 61 1015.4
20260507023932 40 206 3.5 5.2 0.00 0.01 0.01 61 1015.2
20260507023429 40 195 3.5 6.1 0.00 0.01 0.01 60 1015.4
20260507022926 40 211 3.5 6.1 0.00 0.01 0.01 60 1015.3
20260507022423 40 200 3.5 5.2 0.00 0.01 0.01 58 1015.3
20260507021919 40 215 3.5 5.2 0.00 0.01 0.01 56 1015.2
20260507021414 41 223 3.5 6.1 0.00 0.01 0.01 53 1015.4
20260507020912 42 231 5.2 6.1 0.00 0.01 0.01 52 1015.2
20260507020409 42 227 5.2 7.0 0.00 0.01 0.01 50 1015.1
20260507015906 44 224 5.2 8.7 0.00 0.01 0.01 48 1015.1
20260507015404 44 233 8.7 9.6 0.00 0.01 0.01 46 1015.2
20260507014901 44 246 5.2 8.7 0.00 0.01 0.01 44 1015.2
20260507014356 45 240 6.1 10.4 0.00 0.01 0.01 43 1015.2
20260507013853 46 245 7.0 11.3 0.00 0.01 0.01 42 1015.2
20260507013350 46 252 7.0 11.3 0.00 0.01 0.01 42 1015.3
20260507012848 46 255 9.6 11.3 0.00 0.01 0.01 39 1015.2
20260507012343 47 267 9.6 12.2 0.00 0.01 0.01 38 1015.2
20260507011840 47 256 9.6 13.9 0.00 0.01 0.01 39 1015.2
20260507011337 47 234 9.6 14.8 0.00 0.01 0.01 40 1014.9
20260507010832 47 250 7.8 13.9 0.00 0.01 0.01 38 1015.1
20260507010328 48 250 9.6 14.8 0.00 0.01 0.01 36 1015.2
20260507005825 48 250 13.0 15.6 0.00 0.01 0.01 35 1014.9
20260507005322 48 239 9.6 11.3 0.00 0.01 0.01 34 1014.9
20260507004818 49 246 9.6 14.8 0.00 0.01 0.01 35 1014.8
20260507004316 48 245 11.3 16.5 0.00 0.01 0.01 35 1014.9
20260507003813 49 265 12.2 16.5 0.00 0.01 0.01 35 1015.2
20260507003308 49 242 13.9 18.2 0.00 0.01 0.01 36 1015.2
20260507002803 49 251 14.8 17.4 0.00 0.01 0.01 36 1015.3
20260507002300 49 269 9.6 11.3 0.00 0.01 0.01 37 1015.2
20260507001757 49 285 8.7 18.2 0.00 0.01 0.01 36 1015.2
20260507001254 49 244 13.0 16.5 0.00 0.01 0.01 36 1015.3
20260507000750 49 264 12.2 20.0 0.00 0.01 0.01 36 1015.2
20260507000246 49 278 11.3 20.9 0.00 0.01 0.01 36 1015.3
20260506235743 49 282 13.9 16.5 0.00 0.01 0.01 36 1015.3
20260506235238 50 260 5.2 9.6 0.00 0.01 0.01 34 1015.2
20260506234736 50 254 17.4 18.2 0.00 0.01 0.01 37 1015.4
20260506234233 49 285 13.9 14.8 0.00 0.01 0.01 37 1015.5
20260506233730 48 264 13.9 16.5 0.00 0.01 0.01 38 1015.4
20260506233227 49 247 15.6 20.9 0.00 0.01 0.01 36 1015.4
20260506232724 48 278 10.4 14.8 0.00 0.01 0.01 35 1015.4
20260506232218 50 257 11.3 13.0 0.00 0.01 0.01 34 1015.4
20260506231716 50 244 16.5 19.1 0.00 0.01 0.01 35 1015.2
20260506231214 50 276 14.8 19.1 0.00 0.01 0.01 36 1015.2
20260506230710 50 250 17.4 18.2 0.00 0.01 0.01 39 1015.2
20260506230208 49 242 7.8 14.8 0.00 0.01 0.01 39 1015.2
20260506225704 48 279 11.3 16.5 0.00 0.01 0.01 40 1015.4
20260506225201 51 271 18.2 20.0 0.00 0.01 0.01 36 1015.3
20260506224657 49 241 11.3 12.2 0.00 0.01 0.01 40 1015.4
20260506224154 48 279 7.0 10.4 0.00 0.01 0.01 40 1015.5
20260506223651 49 251 7.8 13.9 0.00 0.01 0.01 37 1015.3
20260506223146 49 254 12.2 17.4 0.00 0.01 0.01 37 1015.3
20260506222643 49 244 4.3 9.6 0.00 0.01 0.01 39 1015.5
20260506222139 49 242 10.4 11.3 0.00 0.01 0.01 37 1015.6
20260506221637 49 250 10.4 14.8 0.00 0.01 0.01 40 1015.6
20260506221135 48 272 9.6 11.3 0.00 0.01 0.01 39 1015.6
20260506220632 48 251 8.7 12.2 0.00 0.01 0.01 39 1015.6
20260506220127 49 208 6.1 13.0 0.00 0.01 0.01 37 1015.7
20260506215624 50 231 13.9 17.4 0.00 0.01 0.01 37 1015.9
20260506215119 48 241 9.6 11.3 0.00 0.01 0.01 38 1015.9
20260506214616 48 285 9.6 13.9 0.00 0.01 0.01 39 1015.9
20260506214114 49 224 7.0 14.8 0.00 0.01 0.01 39 1016.0
20260506213612 48 249 10.4 14.8 0.00 0.01 0.01 40 1016.1
20260506213109 47 286 5.2 13.9 0.00 0.01 0.01 40 1016.3
20260506212606 47 289 10.4 13.9 0.00 0.01 0.01 41 1016.2
20260506212101 48 253 11.3 16.5 0.00 0.01 0.01 38 1016.3
20260506211556 47 245 7.0 13.0 0.00 0.01 0.01 38 1016.4
20260506211054 47 260 9.6 15.6 0.00 0.01 0.01 38 1016.2
20260506210550 47 283 8.7 13.9 0.00 0.01 0.01 37 1016.4
20260506210047 49 246 8.7 15.6 0.00 0.01 0.01 37 1016.3
20260506205544 49 205 4.3 9.6 0.00 0.01 0.01 39 1016.5
20260506205039 47 243 12.2 13.9 0.00 0.01 0.01 40 1016.9
20260506204537 46 302 13.9 14.8 0.00 0.01 0.01 41 1016.9
20260506204034 47 296 11.3 14.8 0.00 0.01 0.01 39 1016.9
20260506203532 46 274 10.4 11.3 0.00 0.01 0.01 40 1016.8
20260506203028 47 269 7.8 11.3 0.00 0.01 0.01 38 1017.0
20260506202526 47 284 7.0 11.3 0.00 0.01 0.01 41 1017.0
20260506202022 47 345 5.2 7.8 0.00 0.01 0.01 38 1017.0
20260506201520 47 238 6.1 10.4 0.00 0.01 0.01 38 1017.2
20260506201016 47 275 7.8 8.7 0.00 0.01 0.01 41 1017.2
20260506200512 46 271 7.8 13.0 0.00 0.01 0.01 42 1017.2
20260506200010 47 248 4.3 11.3 0.00 0.01 0.01 39 1017.3
20260506195507 46 287 7.8 11.3 0.00 0.01 0.01 41 1017.5
20260506195003 46 323 7.0 8.7 0.00 0.01 0.01 41 1017.3
20260506194500 45 275 9.6 11.3 0.00 0.01 0.01 42 1017.6
20260506193956 45 286 9.6 13.0 0.00 0.01 0.01 41 1017.6
20260506193454 45 327 6.1 8.7 0.00 0.01 0.01 41 1017.7
20260506192950 44 280 7.8 11.3 0.00 0.01 0.01 42 1017.7
20260506192448 44 259 3.5 4.3 0.00 0.01 0.01 41 1017.8
20260506191944 45 293 6.1 8.7 0.00 0.01 0.01 41 1017.7
20260506191441 45 205 4.3 7.0 0.00 0.01 0.01 40 1017.6
20260506190937 45 355 3.5 7.0 0.00 0.01 0.01 41 1017.8
20260506190434 44 339 1.7 4.3 0.00 0.01 0.01 40 1017.9
20260506185931 45 279 9.6 19.1 0.00 0.01 0.01 40 1017.7
20260506185428 45 295 7.0 8.7 0.00 0.01 0.01 41 1017.8
20260506184925 45 328 5.2 7.0 0.00 0.01 0.01 41 1017.7
20260506184422 45 305 5.2 5.2 0.00 0.01 0.01 41 1017.7
20260506183919 45 265 5.2 6.1 0.00 0.01 0.01 41 1017.6
20260506183414 44 353 5.2 7.0 0.00 0.01 0.01 40 1017.7
20260506182912 44 320 8.7 9.6 0.00 0.01 0.01 39 1017.7
20260506182409 47 37 1.7 4.3 0.00 0.01 0.01 38 1017.9
20260506181906 45 135 3.5 4.3 0.00 0.01 0.01 42 1017.9
20260506181404 45 260 5.2 7.8 0.00 0.01 0.01 41 1017.8
20260506180901 44 343 7.0 12.2 0.00 0.01 0.01 39 1017.8
20260506180357 45 347 3.5 8.7 0.00 0.01 0.01 42 1017.8
20260506175854 45 25 0.9 4.3 0.00 0.01 0.01 41 1018.0
20260506175350 44 19 3.5 7.0 0.00 0.01 0.01 43 1018.1
20260506174847 44 10 7.0 16.5 0.00 0.01 0.01 41 1018.4
20260506174345 44 49 5.2 9.6 0.00 0.01 0.01 44 1018.2
20260506173843 43 146 1.7 7.8 0.00 0.01 0.01 42 1018.5
20260506173339 43 3 6.1 10.4 0.00 0.01 0.01 43 1018.5
20260506172836 43 337 7.8 13.0 0.00 0.01 0.01 42 1018.6
20260506172333 43 354 9.6 14.8 0.00 0.01 0.01 43 1018.5
20260506171830 42 68 8.7 13.0 0.00 0.01 0.01 45 1018.2
20260506171327 42 69 7.0 7.8 0.00 0.01 0.01 44 1018.5
20260506170825 42 29 5.2 7.8 0.00 0.01 0.01 46 1018.4
20260506170320 42 13 7.0 8.7 0.00 0.01 0.01 45 1018.5
20260506165820 42 42 4.3 11.3 0.00 0.01 0.01 41 1018.5
20260506165317 42 37 2.6 10.4 0.00 0.01 0.01 42 1018.5
20260506164813 41 345 4.3 12.2 0.00 0.01 0.01 42 1018.6
20260506164310 41 34 7.8 8.7 0.00 0.01 0.01 46 1018.8